Content
SEND FEEDBACK

Daily
Averages
Monthly
Summary
Canada

QUEBEC CITY, QUEBEC


Home > North America > Canada > Quebec
Elevation: 239 feet     Latitude: 46 48N     Longitude: 071 23W

WEATHER
 
SELECT A DAY
Number of Records: 192,427;   Date Range: 6/30/96 - 8/19/14
 
SHARE

PRINT THIS DATA

[ ← Previous Day ]
WEATHER ALMANAC - OCTOBER 1, 2013
[ Next Day → ]
[ °C ]   °F
Weather ElementAverageHighLow
Temperature56.1 °F71.6 °F (2:00 pm)41 °F (5:00 am)
Dewpoint42.6 °F59 °F (11:00 am) (7:00 pm)
Humidity81.3 %100 % (4:00 am)41 % (2:00 pm)
Wind Speed4.4 mph13.8 mph (1:00 pm)
Wind Gust17.3 mph (4:00 pm)
Weather ElementAverage
Visibility10.7 mi
Wind Direction (418.7 °)

Weather ElementTotal
Precipitation---
Heating Degree Days8.7 (Base 65)
Growing Degree Days6.3 (Base 50)
Averaged from 38 records on October 1, 2013
WEATHER CONDITIONS BREAKOUT
WIND DIRECTION BREAKOUT
WEATHER BY HOUR - OCTOBER 1, 2013
[ °C ]   °F
Local TimeTemperatureDewpointHumidityBarometerVisibilityWind DirectionWind SpeedGust SpeedPrecipitationEventsConditions
1:00 AM51.8 °F48.2 °F88 %29.99 in15.0 miNNE (20°)3.5 mphClear
2:00 AM46.0 °F46.0 °F97 %29.97 inNNW (330°)2.3 mph
2:00 AM48.2 °F46.4 °F93 %29.99 in15.0 miNNW (340°)3.5 mphClear
3:00 AM46.4 °F44.6 °F93 %29.98 in15.0 miNorth (350°)2.3 mphClear
4:00 AM42.8 °F42.8 °F100 %29.98 in15.0 miWest (280°)2.3 mphClear
5:00 AM41.0 °F41.0 °F99 %29.96 inNW (320°)1.2 mph
5:00 AM44.6 °F44.6 °F100 %29.97 in3.0 miNorth (350°)2.3 mphClear
6:00 AM44.6 °F44.6 °F100 %29.99 in6.0 miWNW (300°)2.3 mphPartly Cloudy
6:20 AM44.6 °F0.0 °F6.0 miCalmFogPartly Cloudy
7:00 AM44.6 °F42.8 °F93 %29.99 in7.0 miCalmScattered Clouds
7:39 AM48.2 °F0.0 °F0.0 mi4.6 (2013°)0.00 inFog230
8:00 AM46.0 °F46.0 °F100 %29.99 inWNW (290°)2.3 mph
8:00 AM50.0 °F48.2 °F94 %30.00 in0.1 miSW (230°)4.6 mphFogFog
8:36 AM51.8 °F51.8 °F100 %0.0 mi4.6 (2013°)0.00 inFog200
9:00 AM51.8 °F51.8 °F100 %30.00 in0.2 miSW (220°)3.5 mphFogFog
9:16 AM51.8 °F0.0 °F0.0 mi2.3 (2013°)0.00 inFog250
9:46 AM53.6 °F0.0 °F0.0 miCalm (2013°)0.00 inFog0
10:00 AM55.4 °F53.6 °F94 %29.99 in0.8 miSSW (200°)4.6 mphMostly Cloudy
10:11 AM55.4 °F0.0 °F2.0 miSouth (170°)2.3 mphScattered Clouds
10:22 AM57.2 °F0.0 °F5.0 miWSW (240°)2.3 mphScattered Clouds
11:00 AM62.0 °F59.0 °F87 %29.94 inWNW (290°)1.2 mph
11:00 AM62.6 °F57.2 °F82 %29.97 in12.0 miSW (220°)4.6 mphPartly Cloudy
12:00 PM68.0 °F55.4 °F64 %29.94 in20.0 miSouth (190°)5.8 mphPartly Cloudy
1:00 PM69.8 °F55.4 °F60 %29.92 in20.0 miSW (220°)13.8 mphPartly Cloudy
2:00 PM71.0 °F52.0 °F41 %29.87 inSW (230°)8.1 mph
2:00 PM71.6 °F51.8 °F50 %29.89 in20.0 miWSW (240°)12.7 mphPartly Cloudy
3:00 PM71.6 °F51.8 °F50 %29.87 in20.0 miWSW (240°)13.8 mphPartly Cloudy
4:00 PM71.6 °F50.0 °F46 %29.86 in20.0 miWSW (240°)11.5 mph17.3 mphPartly Cloudy
5:00 PM69.8 °F53.6 °F56 %29.85 in20.0 miWSW (240°)8.1 mphPartly Cloudy
5:00 PM70.0 °F54.0 °F46 %29.83 inWest (260°)4.6 mph
6:00 PM66.2 °F55.4 °F68 %29.84 in25.0 miWest (260°)4.6 mphClear
7:00 PM60.8 °F53.6 °F77 %29.84 in15.0 miWSW (250°)5.8 mphPartly Cloudy
8:00 PM55.0 °F51.0 °F82 %29.83 inWest (280°)1.2 mph
8:00 PM59.0 °F53.6 °F82 %29.85 in15.0 miSW (220°)6.9 mphClear
9:00 PM59.0 °F53.6 °F82 %29.84 in15.0 miWSW (250°)2.3 mphMostly Cloudy
10:00 PM57.2 °F53.6 °F88 %29.83 in15.0 miNNE (30°)2.3 mphMostly Cloudy
11:00 PM54.0 °F53.0 °F95 %29.80 inCalm
11:00 PM55.4 °F53.6 °F94 %29.82 in15.0 miSE (140°)2.3 mphMostly Cloudy
Hourly data recorded from CYQB, located miles away from Quebec City, Quebec







STORIES FROM OUR PARTNERS